Weather History for Ladysmith, WI

Change the Weather History Date:

Tuesday, January 28, 2014

  Actual Average (KRPD) Record (KRPD)
Temperature  
Mean Temperature -12 °F -  
Max Temperature -3 °F 22 °F -3 °F (2014)
Min Temperature -22 °F 7 °F -22 °F (2014)
Degree Days  
Heating Degree Days 78    
Moisture  
Dew Point -20 °F    
Average Humidity 66    
Maximum Humidity 76    
Minimum Humidity 54    
Precipitation  
Precipitation 0.00 in - - ()
Sea Level Pressure  
Sea Level Pressure 30.14 in    
Wind  
Wind Speed 7 mph (WSW)    
Max Wind Speed 14 mph    
Max Gust Speed 21 mph    
Visibility 10 miles    
Events      
Averages and records for this station are not official NWS values.
T = Trace of Precipitation, MM = Missing Value Source: NWS Daily Summary

Daily Weather History Graph

Daily Weather History Graph

Search for Another Location

Airport:

Trip Planner

Search our weather history database for the weather conditions in past years. The results will help you decide how hot, cold, wet, or windy it might be!

Date:

Astronomy

Jan. 28, 2014 Rise Set
Actual Time 7:29 AM CST 5:05 PM CST
Civil Twilight 6:57 AM CST 5:36 PM CST
Nautical Twilight 6:21 AM CST 6:12 PM CST
Astronomical Twilight 5:46 AM CST 6:47 PM CST
Moon 5:13 AM CST 2:53 PM CST
Length of Visible Light 10h 39m
Length of Day
9h 35m
Waning Crescent, 7% of the Moon is Illuminated
Jan 28
Waning Crescent
Jan 30
New
Feb 6
First Quarter
Feb 14
Full
Feb 22
Last Quarter

Hourly Weather History & Observations

Time (CST) Temp. Windchill Dew Point Humidity Pressure Visibility Wind Dir Wind Speed Gust Speed Precip Events Conditions
12:15 AM -15.9 °F -30.4 °F -23.6 °F 68% 30.25 in 10.0 mi WSW 5.8 mph - N/A   Clear
12:35 AM -16.4 °F -29.1 °F -24.3 °F 67% 30.25 in 10.0 mi WSW 4.6 mph - N/A   Clear
12:55 AM -17.1 °F -29.9 °F -24.3 °F 70% 30.24 in 10.0 mi WSW 4.6 mph - N/A   Clear
1:15 AM -16.8 °F -31.5 °F -24.0 °F 70% 30.24 in 10.0 mi West 5.8 mph - N/A   Clear
1:35 AM -17.0 °F -31.7 °F -24.0 °F 70% 30.24 in 10.0 mi WSW 5.8 mph - N/A   Clear
1:55 AM -17.9 °F -30.7 °F -24.9 °F 70% 30.24 in 10.0 mi WSW 4.6 mph - N/A   Clear
2:15 AM -18.4 °F -33.4 °F -24.7 °F 73% 30.24 in 10.0 mi WSW 5.8 mph - N/A   Clear
2:35 AM -18.4 °F -33.4 °F -24.7 °F 73% 30.24 in 10.0 mi WSW 5.8 mph - N/A   Clear
2:55 AM -19.5 °F -34.7 °F -25.6 °F 73% 30.23 in 10.0 mi WSW 5.8 mph - N/A   Clear
3:15 AM -20.6 °F -37.7 °F -26.5 °F 74% 30.23 in 10.0 mi WSW 6.9 mph - N/A   Clear
3:35 AM -20.6 °F -33.9 °F -26.5 °F 74% 30.23 in 10.0 mi WSW 4.6 mph - N/A   Clear
3:55 AM -21.5 °F -37.0 °F -27.4 °F 74% 30.22 in 10.0 mi SW 5.8 mph - N/A   Clear
4:15 AM -21.8 °F -35.4 °F -27.4 °F 75% 30.22 in 10.0 mi SW 4.6 mph - N/A   Clear
4:35 AM -21.8 °F -35.4 °F -27.4 °F 75% 30.22 in 10.0 mi SW 4.6 mph - N/A   Clear
4:55 AM -22.5 °F -36.2 °F -27.9 °F 76% 30.22 in 10.0 mi SW 4.6 mph - N/A   Clear
5:15 AM -22.0 °F -33.0 °F -27.6 °F 75% 30.22 in 10.0 mi WSW 3.5 mph - N/A   Clear
5:35 AM -22.5 °F -36.2 °F -28.3 °F 75% 30.22 in 10.0 mi SW 4.6 mph - N/A   Clear
5:55 AM -22.7 °F -36.4 °F -28.3 °F 75% 30.23 in 10.0 mi SW 4.6 mph - N/A   Clear
6:15 AM -22.2 °F -37.9 °F -27.9 °F 75% 30.22 in 10.0 mi SW 5.8 mph - N/A   Clear
6:35 AM -22.0 °F -37.7 °F -27.6 °F 75% 30.22 in 10.0 mi WSW 5.8 mph - N/A   Clear
6:55 AM -21.6 °F -39.0 °F -27.6 °F 74% 30.21 in 10.0 mi WSW 6.9 mph - N/A   Clear
7:15 AM -21.5 °F -38.8 °F -27.6 °F 73% 30.21 in 10.0 mi WSW 6.9 mph - N/A   Clear
7:35 AM -21.3 °F -38.6 °F -27.4 °F 73% 30.22 in 10.0 mi WSW 6.9 mph - N/A   Clear
7:55 AM -21.5 °F -37.0 °F -27.8 °F 73% 30.22 in 10.0 mi WSW 5.8 mph - N/A   Clear
8:15 AM -20.6 °F -36.0 °F -26.5 °F 74% 30.22 in 10.0 mi WSW 5.8 mph - N/A   Clear
8:35 AM -19.7 °F -32.8 °F -25.8 °F 73% 30.20 in 10.0 mi WSW 4.6 mph - N/A   Clear
8:55 AM -18.4 °F -31.4 °F -24.2 °F 75% 30.20 in 10.0 mi WSW 4.6 mph - N/A   Clear
9:15 AM -17.3 °F -32.1 °F -23.1 °F 75% 30.20 in 10.0 mi WSW 5.8 mph - N/A   Clear
9:35 AM -16.1 °F -30.6 °F -22.2 °F 74% 30.20 in 10.0 mi SW 5.8 mph - N/A   Clear
9:55 AM -15.2 °F -27.6 °F -21.1 °F 75% 30.20 in 10.0 mi WSW 4.6 mph - N/A   Clear
10:15 AM -13.0 °F -28.6 °F -19.3 °F 73% 30.20 in 10.0 mi SW 6.9 mph - N/A   Clear
10:35 AM -11.4 °F -25.1 °F -18.8 °F 70% 30.20 in 10.0 mi SW 5.8 mph - N/A   Clear
10:55 AM -9.9 °F -23.4 °F -19.3 °F 63% 30.19 in 10.0 mi WSW 5.8 mph - N/A   Clear
11:15 AM -8.5 °F -23.2 °F -18.8 °F 61% 30.18 in 10.0 mi WSW 6.9 mph - N/A   Clear
11:35 AM -7.2 °F -23.0 °F -18.8 °F 57% 30.18 in 10.0 mi WSW 8.1 mph - N/A   Clear
11:55 AM -6.7 °F -24.5 °F -18.6 °F 56% 30.17 in 10.0 mi WSW 10.4 mph - N/A   Clear
12:15 PM -5.8 °F -21.2 °F -18.4 °F 55% 30.15 in 10.0 mi WSW 8.1 mph - N/A   Clear
12:35 PM -5.3 °F -22.8 °F -17.5 °F 56% 30.14 in 10.0 mi WSW 10.4 mph - N/A   Clear
12:55 PM -4.5 °F -22.8 °F -17.0 °F 55% 30.12 in 10.0 mi WSW 11.5 mph - N/A   Clear
1:15 PM -4.5 °F -24.4 °F -17.5 °F 54% 30.12 in 10.0 mi WSW 13.8 mph - N/A   Clear
1:35 PM -4.4 °F -21.6 °F -17.3 °F 54% 30.11 in 10.0 mi WSW 10.4 mph - N/A   Clear
1:55 PM -4.0 °F -23.0 °F -16.6 °F 55% 30.11 in 10.0 mi West 12.7 mph 17.3 mph N/A   Clear
2:15 PM -3.5 °F -22.3 °F -16.1 °F 55% 30.10 in 10.0 mi WSW 12.7 mph 16.1 mph N/A   Clear
2:35 PM -3.5 °F -19.5 °F -15.9 °F 55% 30.10 in 10.0 mi WSW 9.2 mph - N/A   Scattered Clouds
2:55 PM -3.3 °F -22.1 °F -15.7 °F 55% 30.09 in 10.0 mi SW 12.7 mph - N/A   Mostly Cloudy
3:15 PM -4.0 °F -23.0 °F -15.7 °F 57% 30.09 in 10.0 mi WSW 12.7 mph 18.4 mph N/A   Overcast
3:35 PM -4.5 °F -24.4 °F -15.9 °F 58% 30.08 in 10.0 mi SW 13.8 mph 18.4 mph N/A   Overcast
3:55 PM -4.4 °F -22.6 °F -15.7 °F 58% 30.08 in 10.0 mi WSW 11.5 mph 17.3 mph N/A   Overcast
4:15 PM -4.0 °F -22.1 °F -15.3 °F 58% 30.08 in 10.0 mi SW 11.5 mph 17.3 mph N/A   Overcast
4:35 PM -4.0 °F -22.1 °F -15.3 °F 58% 30.08 in 10.0 mi WSW 11.5 mph 17.3 mph N/A   Mostly Cloudy
4:55 PM -4.2 °F -22.3 °F -15.2 °F 59% 30.08 in 10.0 mi WSW 11.5 mph - N/A   Scattered Clouds
5:15 PM -4.4 °F -22.6 °F -15.3 °F 59% 30.08 in 10.0 mi WSW 11.5 mph 20.7 mph N/A   Clear
5:35 PM -4.7 °F -21.1 °F -15.7 °F 59% 30.08 in 10.0 mi WSW 9.2 mph - N/A   Scattered Clouds
5:55 PM -5.4 °F -21.9 °F -15.9 °F 61% 30.07 in 10.0 mi WSW 9.2 mph - N/A   Clear
6:15 PM -5.8 °F -23.4 °F -15.9 °F 62% 30.07 in 10.0 mi WSW 10.4 mph - N/A   Clear
6:35 PM -5.8 °F -23.4 °F -15.7 °F 62% 30.06 in 10.0 mi WSW 10.4 mph 16.1 mph N/A   Scattered Clouds
6:55 PM -5.6 °F -19.7 °F -15.5 °F 62% 30.05 in 10.0 mi WSW 6.9 mph 16.1 mph N/A   Scattered Clouds
7:15 PM -5.6 °F -21.0 °F -15.5 °F 62% 30.05 in 10.0 mi WSW 8.1 mph - N/A   Scattered Clouds
7:35 PM -5.4 °F -20.8 °F -15.0 °F 63% 30.05 in 10.0 mi WSW 8.1 mph - N/A   Overcast
7:55 PM -5.4 °F -23.0 °F -14.8 °F 64% 30.04 in 10.0 mi WSW 10.4 mph 16.1 mph N/A   Overcast
8:15 PM -5.4 °F -24.8 °F -14.8 °F 64% 30.03 in 10.0 mi WSW 12.7 mph 17.3 mph N/A   Overcast
8:35 PM -5.1 °F -22.5 °F -14.3 °F 65% 30.03 in 10.0 mi WSW 10.4 mph 16.1 mph N/A   Overcast
8:55 PM -5.1 °F -23.5 °F -14.1 °F 65% 30.01 in 10.0 mi WSW 11.5 mph - N/A   Overcast
9:15 PM -5.4 °F -23.9 °F -14.4 °F 65% 30.01 in 10.0 mi WSW 11.5 mph - N/A   Scattered Clouds
9:35 PM -5.6 °F -23.2 °F -14.3 °F 66% 30.01 in 10.0 mi WSW 10.4 mph - N/A   Clear
9:55 PM -5.8 °F -23.4 °F -14.1 °F 67% 30.00 in 10.0 mi WSW 10.4 mph - N/A   Clear
10:15 PM -5.8 °F -22.4 °F -14.1 °F 67% 30.00 in 10.0 mi WSW 9.2 mph - N/A   Scattered Clouds
10:35 PM -5.8 °F -23.4 °F -13.9 °F 68% 30.00 in 10.0 mi WSW 10.4 mph - N/A   Scattered Clouds
10:55 PM -5.8 °F -22.4 °F -13.9 °F 68% 30.00 in 10.0 mi WSW 9.2 mph - N/A   Clear
11:15 PM -5.4 °F -20.8 °F -13.5 °F 68% 29.99 in 10.0 mi WSW 8.1 mph - N/A   Clear
11:35 PM -5.4 °F -20.8 °F -13.4 °F 69% 29.99 in 10.0 mi WSW 8.1 mph - N/A   Scattered Clouds
11:55 PM -5.3 °F -19.3 °F -13.0 °F 69% 29.98 in 10.0 mi WSW 6.9 mph - N/A   Mostly Cloudy